TimeCDT,TemperatureF,Dew PointF,Humidity,Sea Level PressureIn,VisibilityMPH,Wind Direction,Wind SpeedMPH,Gust SpeedMPH,PrecipitationIn,Events,Conditions,WindDirDegrees,DateUTC
12:56 AM,45.0,37.0,74,30.30,10.0,SW,3.5,-,N/A,,Clear,220,2013-03-15 05:56:00
1:56 AM,46.0,39.9,79,30.29,10.0,WSW,3.5,-,N/A,,Clear,240,2013-03-15 06:56:00
2:56 AM,42.1,39.0,89,30.27,10.0,Calm,Calm,-,N/A,,Clear,0,2013-03-15 07:56:00
3:56 AM,42.1,37.9,85,30.26,10.0,Calm,Calm,-,N/A,,Clear,0,2013-03-15 08:56:00
4:56 AM,41.0,39.0,93,30.27,10.0,Calm,Calm,-,N/A,,Clear,0,2013-03-15 09:56:00
5:56 AM,42.1,39.0,89,30.28,10.0,Calm,Calm,-,N/A,,Partly Cloudy,0,2013-03-15 10:56:00
6:56 AM,42.1,37.9,85,30.29,10.0,Calm,Calm,-,N/A,,Clear,0,2013-03-15 11:56:00
7:56 AM,45.0,42.1,90,30.30,8.0,Calm,Calm,-,N/A,,Clear,0,2013-03-15 12:56:00
8:56 AM,54.0,45.0,72,30.31,10.0,Variable,5.8,-,N/A,,Clear,0,2013-03-15 13:56:00
9:56 AM,59.0,43.0,55,30.31,10.0,West,6.9,-,N/A,,Clear,260,2013-03-15 14:56:00
10:56 AM,64.9,41.0,42,30.30,10.0,SW,8.1,-,N/A,,Clear,230,2013-03-15 15:56:00
11:56 AM,69.1,39.0,33,30.27,10.0,West,6.9,-,N/A,,Clear,260,2013-03-15 16:56:00
12:56 PM,71.6,39.2,31,30.25,9.0,SSW,12.7,16.1,N/A,,Partly Cloudy,210,2013-03-15 17:56:00
1:56 PM,71.6,41.0,33,30.22,9.0,SSW,16.1,20.7,N/A,,Partly Cloudy,200,2013-03-15 18:56:00
2:56 PM,71.1,37.9,30,30.18,10.0,SSW,13.8,-,N/A,,Partly Cloudy,210,2013-03-15 19:56:00
3:56 PM,70.0,35.1,28,30.16,10.0,South,13.8,20.7,N/A,,Partly Cloudy,190,2013-03-15 20:56:00
4:56 PM,68.0,33.1,27,30.16,10.0,SW,13.8,-,N/A,,Partly Cloudy,230,2013-03-15 21:56:00
5:56 PM,66.0,37.0,34,30.16,10.0,SSW,12.7,-,N/A,,Partly Cloudy,200,2013-03-15 22:56:00
6:56 PM,62.1,37.0,39,30.18,10.0,SSW,10.4,-,N/A,,Partly Cloudy,200,2013-03-15 23:56:00
7:56 PM,57.9,39.9,51,30.18,10.0,SSW,6.9,-,N/A,,Partly Cloudy,200,2013-03-16 00:56:00
8:56 PM,57.0,43.0,59,30.17,10.0,South,10.4,-,N/A,,Partly Cloudy,190,2013-03-16 01:56:00
9:56 PM,57.0,45.0,64,30.17,10.0,SSW,10.4,-,N/A,,Partly Cloudy,200,2013-03-16 02:56:00
10:56 PM,57.0,45.0,64,30.17,10.0,SSW,11.5,-,N/A,,Partly Cloudy,200,2013-03-16 03:56:00